User: anonymous   Login
Location: Caltech
(34.1382°N, 118.1253°W)
Time: 07:10:58
(UTC-07:00)
Language:

Cosmos 2084 - Orbit

View from above orbital plane
View from above orbital plane
View from above satellite
View from above satellite

Ground track
Ground track

The orbit data is extracted from the following two-line orbital elements,

1 20663U 90055A   15210.46730363  .00000348  00000-0  51778-4 0  9994
2 20663 062.7952 005.1577 0085317 017.1300 343.2641 14.90600950357104
Epoch (UTC): 29 July 2015 11:12:55
Eccentricity: 0.0085317
inclination: 62.7952°
perigee height: 536 km
apogee height: 655 km
right ascension of ascending node: 5.1577°
argument of perigee: 17.1300°
revolutions per day: 14.90600950
mean anomaly at epoch: 343.2641°
orbit number at epoch: 35710

The dashed part of the orbit path shows where the satellite is in the earth's shadow,  

DLR